TimeCST,TemperatureF,Dew PointF,Humidity,Sea Level PressureIn,VisibilityMPH,Wind Direction,Wind SpeedMPH,Gust SpeedMPH,PrecipitationIn,Events,Conditions,WindDirDegrees,DateUTC
12:13 AM,15.8,10.4,79,29.78,10.0,NW,6.9,-,N/A,,Mostly Cloudy,320,2012-12-31 06:13:00
12:33 AM,17.6,10.4,73,29.78,5.0,NNW,5.8,17.3,N/A,Snow,Light Snow,340,2012-12-31 06:33:00
12:53 AM,17.6,10.4,73,29.78,4.0,NW,6.9,-,N/A,Snow,Light Snow,320,2012-12-31 06:53:00
1:13 AM,15.8,8.6,73,29.79,5.0,NW,10.4,17.3,N/A,Snow,Light Snow,320,2012-12-31 07:13:00
1:33 AM,15.8,8.6,73,29.81,3.0,NW,4.6,-,N/A,Snow,Light Snow,320,2012-12-31 07:33:00
1:53 AM,15.8,6.8,68,29.82,7.0,NW,5.8,16.1,N/A,Snow,Light Snow,320,2012-12-31 07:53:00
2:13 AM,12.2,3.2,67,29.84,7.0,NW,9.2,16.1,N/A,Snow,Light Snow,320,2012-12-31 08:13:00
2:33 AM,10.4,1.4,67,29.85,10.0,NW,11.5,18.4,N/A,,Scattered Clouds,320,2012-12-31 08:33:00
2:53 AM,10.4,1.4,67,29.86,7.0,NW,5.8,19.6,N/A,Snow,Light Snow,320,2012-12-31 08:53:00
3:13 AM,10.4,-0.4,62,29.88,10.0,WNW,8.1,-,N/A,Snow,Light Snow,300,2012-12-31 09:13:00
3:33 AM,8.6,-0.4,67,29.89,10.0,NW,8.1,18.4,N/A,,Clear,310,2012-12-31 09:33:00
3:53 AM,8.6,-0.4,67,29.91,10.0,NW,4.6,19.6,N/A,,Clear,310,2012-12-31 09:53:00
4:13 AM,8.6,-0.4,67,29.92,10.0,NW,5.8,-,N/A,,Clear,320,2012-12-31 10:13:00
4:33 AM,8.6,-0.4,67,29.93,10.0,WNW,3.5,-,N/A,,Clear,290,2012-12-31 10:33:00
4:53 AM,8.6,-0.4,67,29.93,10.0,NNW,3.5,-,N/A,Snow,Light Snow,330,2012-12-31 10:53:00
5:13 AM,8.6,-2.2,62,29.93,10.0,WNW,8.1,20.7,N/A,,Scattered Clouds,290,2012-12-31 11:13:00
5:33 AM,6.8,-2.2,67,29.94,10.0,WNW,6.9,-,N/A,,Clear,300,2012-12-31 11:33:00
5:53 AM,6.8,-2.2,67,29.95,10.0,NW,5.8,-,N/A,,Clear,320,2012-12-31 11:53:00
6:13 AM,6.8,-4.0,61,29.97,10.0,NW,6.9,16.1,N/A,,Clear,320,2012-12-31 12:13:00
6:33 AM,5.0,-5.8,61,29.98,10.0,WNW,4.6,-,N/A,,Clear,300,2012-12-31 12:33:00
6:53 AM,3.2,-5.8,66,29.99,10.0,NW,5.8,-,N/A,,Clear,310,2012-12-31 12:53:00
7:33 AM,1.4,-7.6,66,30.00,10.0,NW,5.8,-,N/A,,Clear,320,2012-12-31 13:33:00
7:53 AM,1.4,-7.6,66,30.01,10.0,NW,4.6,-,N/A,,Clear,320,2012-12-31 13:53:00
8:13 AM,1.4,-7.6,66,30.02,10.0,NNW,4.6,-,N/A,,Clear,330,2012-12-31 14:13:00
8:33 AM,1.4,-9.4,61,30.03,7.0,NNW,6.9,-,N/A,,Clear,330,2012-12-31 14:33:00
8:53 AM,3.2,-9.4,56,30.03,10.0,NW,5.8,-,N/A,,Clear,320,2012-12-31 14:53:00
9:13 AM,3.2,-9.4,56,30.04,7.0,NW,9.2,-,N/A,,Clear,320,2012-12-31 15:13:00
9:33 AM,3.2,-9.4,56,30.05,10.0,NNW,9.2,-,N/A,Snow,Light Snow,330,2012-12-31 15:33:00
9:53 AM,5.0,-9.4,52,30.05,7.0,NNW,6.9,16.1,N/A,,Clear,330,2012-12-31 15:53:00
10:13 AM,6.8,-9.4,48,30.06,7.0,NW,4.6,-,N/A,Snow,Light Snow,320,2012-12-31 16:13:00
10:33 AM,6.8,-9.4,48,30.07,10.0,NW,4.6,-,N/A,,Clear,320,2012-12-31 16:33:00
10:53 AM,8.6,-9.4,44,30.08,10.0,North,8.1,-,N/A,,Clear,360,2012-12-31 16:53:00
11:13 AM,8.6,-9.4,44,30.08,7.0,North,6.9,-,N/A,Snow,Light Snow,350,2012-12-31 17:13:00
11:33 AM,8.6,-9.4,44,30.08,10.0,NNW,4.6,-,N/A,,Clear,340,2012-12-31 17:33:00
11:53 AM,10.4,-9.4,41,30.08,10.0,NNW,5.8,-,N/A,,Clear,340,2012-12-31 17:53:00
12:13 PM,10.4,-9.4,41,30.07,10.0,North,6.9,-,N/A,,Clear,350,2012-12-31 18:13:00
12:33 PM,12.2,-9.4,38,30.07,10.0,WNW,5.8,-,N/A,,Clear,300,2012-12-31 18:33:00
12:53 PM,12.2,-9.4,38,30.06,10.0,NW,6.9,-,N/A,,Clear,320,2012-12-31 18:53:00
1:14 PM,12.2,-7.6,41,30.06,10.0,NNW,6.9,-,N/A,,Clear,330,2012-12-31 19:14:00
1:34 PM,12.2,-7.6,41,30.06,10.0,NNW,9.2,-,N/A,Snow,Light Snow,340,2012-12-31 19:34:00
1:53 PM,12.2,-7.6,41,30.06,10.0,NNW,5.8,-,N/A,,Clear,340,2012-12-31 19:53:00
2:13 PM,12.2,-7.6,41,30.06,10.0,NW,6.9,-,N/A,,Clear,320,2012-12-31 20:13:00
2:33 PM,10.4,-7.6,44,30.07,10.0,NNW,6.9,-,N/A,,Clear,340,2012-12-31 20:33:00
2:53 PM,10.4,-7.6,44,30.07,10.0,NW,8.1,-,N/A,,Clear,320,2012-12-31 20:53:00
3:13 PM,10.4,-7.6,44,30.07,10.0,NW,4.6,-,N/A,,Clear,310,2012-12-31 21:13:00
3:33 PM,8.6,-7.6,48,30.09,10.0,NW,9.2,-,N/A,,Clear,320,2012-12-31 21:33:00
3:53 PM,6.8,-7.6,52,30.09,10.0,NNW,4.6,-,N/A,,Clear,330,2012-12-31 21:53:00
4:13 PM,5.0,-7.6,56,30.10,10.0,NW,4.6,-,N/A,,Clear,320,2012-12-31 22:13:00
4:33 PM,3.2,-7.6,61,30.11,10.0,NNW,5.8,-,N/A,,Clear,330,2012-12-31 22:33:00
4:53 PM,3.2,-9.4,56,30.12,10.0,Calm,Calm,-,N/A,,Clear,0,2012-12-31 22:53:00
5:13 PM,1.4,-9.4,61,30.13,10.0,Calm,Calm,-,N/A,,Clear,0,2012-12-31 23:13:00
5:33 PM,-0.4,-11.2,60,30.13,10.0,Calm,Calm,-,N/A,,Clear,0,2012-12-31 23:33:00
5:53 PM,-0.4,-11.2,60,30.13,10.0,Calm,Calm,-,N/A,,Clear,0,2012-12-31 23:53:00
6:13 PM,-2.2,-11.2,66,30.14,10.0,Calm,Calm,-,N/A,,Clear,0,2013-01-01 00:13:00
6:33 PM,-4.0,-13.0,65,30.15,10.0,Calm,Calm,-,N/A,,Clear,0,2013-01-01 00:33:00
6:53 PM,-4.0,-13.0,65,30.14,10.0,Calm,Calm,-,N/A,,Clear,0,2013-01-01 00:53:00
7:13 PM,-4.0,-11.2,71,30.14,10.0,NW,3.5,-,N/A,,Clear,320,2013-01-01 01:13:00
7:33 PM,-2.2,-9.4,71,30.14,10.0,NW,6.9,-,N/A,,Clear,310,2013-01-01 01:33:00
7:53 PM,-2.2,-9.4,71,30.14,10.0,NW,3.5,-,N/A,,Clear,320,2013-01-01 01:53:00
8:33 PM,-2.2,-9.4,71,30.15,10.0,Calm,Calm,-,N/A,,Clear,0,2013-01-01 02:33:00
8:53 PM,-4.0,-11.2,71,30.15,10.0,Calm,Calm,-,N/A,,Clear,0,2013-01-01 02:53:00
9:13 PM,-4.0,-11.2,71,30.15,10.0,Calm,Calm,-,N/A,,Clear,0,2013-01-01 03:13:00
9:33 PM,-2.2,-9.4,71,30.14,10.0,Calm,Calm,-,N/A,,Clear,0,2013-01-01 03:33:00
9:53 PM,-4.0,-9.4,78,30.15,10.0,Calm,Calm,-,N/A,,Clear,0,2013-01-01 03:53:00
10:13 PM,-4.0,-9.4,78,30.14,10.0,Calm,Calm,-,N/A,,Clear,0,2013-01-01 04:13:00
10:33 PM,-4.0,-9.4,78,30.14,10.0,Calm,Calm,-,N/A,,Clear,0,2013-01-01 04:33:00
10:53 PM,-4.0,-9.4,78,30.14,10.0,Calm,Calm,-,N/A,,Clear,0,2013-01-01 04:53:00
11:13 PM,-2.2,-9.4,71,30.14,10.0,Calm,Calm,-,N/A,,Clear,0,2013-01-01 05:13:00
11:33 PM,-4.0,-9.4,78,30.14,10.0,Calm,Calm,-,N/A,,Clear,0,2013-01-01 05:33:00
11:53 PM,-4.0,-11.2,71,30.14,10.0,NNW,3.5,-,N/A,,Clear,340,2013-01-01 05:53:00